Location: Kalisz
(51.7636°N, 18.0893°E)
Time: 11:14:14
(UTC+01:00)

ISS - Pass Details

Date: 26 January 2019
Orbit: 403 x 411 km, 51.6° (Epoch: 16 February)

Event Time Altitude Azimuth Distance (km) Brightness Sun altitude
Rises 19:14:08 0° 253° (WSW) 2,334 1.2 -25.9°
Reaches altitude 10° 19:16:13 10° 252° (WSW) 1,476 -0.1 -26.2°
Enters shadow 19:17:36 23° 248° (WSW) 925 -1.4 -26.5°
